Starlink 5209

operational
NORAD ID: 54061 Int'l Des: 2022-136 Owner: SPXS Country: US Constellation: starlink
LEOCIRCULAR

Starlink 5209について

説明を読み込み中...

リアルタイム位置

3D地球を読み込み中...

次回通過

高度履歴

Altitude vs Time

uPlot chart will show altitude changes over time

軌道要素

1 54061U 22136L 25354.29371639 -.00000839 00000-0 -34619-4 0 9998
2 54061 53.2184 305.1545 0001370 84.1918 275.9230 15.08836220175350
Epoch: Dec 20, 2025 • Age: 20 hours

現在のステータス

高度 556.3 km
速度 7.58 km/s
衛星直下点 -46.16°S, 109.15°E
打ち上げ日 Oct 20, 2022
運用期間 3.1 years
タイプ internet

技術仕様

分類 Payload
質量 305.00 kg
乾燥質量 290.00 kg
総質量 305.00 kg
長さ 0.20 m
直径 2.80 m
スパン 9.00 m
形状 Box + pan
製造者 SPXS
バスタイプ Starlink
フェーズステータス In Orbit
所有者/国 SPXS/US

大規模コンステレーション

Loading constellations...